owner,sensor,date,latitude,longitude,vertical_datum,direction_of_sea_water_velocity,sea_water_speed,upward_sea_water_velocity,qcFlag 
TABS,ioos:station:wmo:42045:1,2011-05-01T00:00:00Z,26.2168,-96.4998,2.0,47.89867525,2.237319825,-99999.0,'11133222,11111222,99999999' 
TABS,ioos:station:wmo:42045:1,2011-05-01T00:30:00Z,26.2168,-96.4998,2.0,82.26871981,6.095408108,-99999.0,'11133222,11111222,99999999' 
TABS,ioos:station:wmo:42045:1,2011-05-01T01:00:00Z,26.2168,-96.4998,2.0,169.7196849,8.293129687,-99999.0,'11133222,11111222,99999999' 
TABS,ioos:station:wmo:42045:1,2011-05-01T01:30:00Z,26.2168,-96.4998,2.0,144.9198845,1.600781059,-99999.0,'11133222,11111222,99999999' 
TABS,ioos:station:wmo:42045:1,2011-05-01T02:00:00Z,26.2168,-96.4998,2.0,179.2533087,3.070260575,-99999.0,'11133222,11111222,99999999' 
TABS,ioos:station:wmo:42045:1,2011-05-01T02:30:00Z,26.2168,-96.4998,2.0,17.87886525,0.651459899,-99999.0,'11133222,11111222,99999999' 
TABS,ioos:station:wmo:42045:1,2011-05-01T03:00:00Z,26.2168,-96.4998,2.0,251.5646734,4.269074841,-99999.0,'11133222,11111222,99999999' 
TABS,ioos:station:wmo:42045:1,2011-05-01T03:30:00Z,26.2168,-96.4998,2.0,268.8576244,6.021195895,-99999.0,'11133222,11111222,99999999' 
TABS,ioos:station:wmo:42045:1,2011-05-01T04:00:00Z,26.2168,-96.4998,2.0,301.1786945,7.784375376,-99999.0,'11133222,11111222,99999999' 
TABS,ioos:station:wmo:42045:1,2011-05-01T04:30:00Z,26.2168,-96.4998,2.0,243.1377241,2.589401475,-99999.0,'11133222,11111222,99999999' 
TABS,ioos:station:wmo:42045:1,2011-05-01T05:00:00Z,26.2168,-96.4998,2.0,246.141724,4.450269655,-99999.0,'11133222,11111222,99999999' 
TABS,ioos:station:wmo:42045:1,2011-05-01T05:30:00Z,26.2168,-96.4998,2.0,230.4429651,6.485129143,-99999.0,'11133222,11111222,99999999' 
TABS,ioos:station:wmo:42045:1,2011-05-01T06:00:00Z,26.2168,-96.4998,2.0,254.6867965,1.74183811,-99999.0,'11133222,11111222,99999999' 
TABS,ioos:station:wmo:42045:1,2011-05-01T06:30:00Z,26.2168,-96.4998,2.0,252.2753331,5.354147925,-99999.0,'11133222,11111222,99999999' 
TABS,ioos:station:wmo:42045:1,2011-05-01T07:00:00Z,26.2168,-96.4998,2.0,285.4400303,4.357246837,-99999.0,'11133222,11111222,99999999' 
TABS,ioos:station:wmo:42045:1,2011-05-01T07:30:00Z,26.2168,-96.4998,2.0,322.5014302,6.012362265,-99999.0,'11133222,11111222,99999999' 
TABS,ioos:station:wmo:42045:1,2011-05-01T08:00:00Z,26.2168,-96.4998,2.0,308.0556572,4.737013827,-99999.0,'11133222,11111222,99999999' 
TABS,ioos:station:wmo:42045:1,2011-05-01T08:30:00Z,26.2168,-96.4998,2.0,338.7497546,7.918415245,-99999.0,'11133222,11111222,99999999' 
TABS,ioos:station:wmo:42045:1,2011-05-01T09:00:00Z,26.2168,-96.4998,2.0,285.0166772,6.522737156,-99999.0,'11133222,11111222,99999999' 
TABS,ioos:station:wmo:42045:1,2011-05-01T09:30:00Z,26.2168,-96.4998,2.0,318.9125073,10.98575441,-99999.0,'11111222,11111222,99999999' 
TABS,ioos:station:wmo:42045:1,2011-05-01T10:00:00Z,26.2168,-96.4998,2.0,331.432091,11.8986806,-99999.0,'11111222,11111222,99999999' 
TABS,ioos:station:wmo:42045:1,2011-05-01T10:30:00Z,26.2168,-96.4998,2.0,308.4203617,7.836867997,-99999.0,'11133222,11111222,99999999' 
TABS,ioos:station:wmo:42045:1,2011-05-01T11:00:00Z,26.2168,-96.4998,2.0,325.5733824,12.2931729,-99999.0,'11111222,11111222,99999999' 
TABS,ioos:station:wmo:42045:1,2011-05-01T11:30:00Z,26.2168,-96.4998,2.0,301.1812505,3.167601616,-99999.0,'11133222,11111222,99999999' 
TABS,ioos:station:wmo:42045:1,2011-05-01T12:00:00Z,26.2168,-96.4998,2.0,323.7112048,12.2326285,-99999.0,'11111222,11111222,99999999' 
TABS,ioos:station:wmo:42045:1,2011-05-01T12:30:00Z,26.2168,-96.4998,2.0,340.2279062,9.755121732,-99999.0,'11133222,11111222,99999999' 
TABS,ioos:station:wmo:42045:1,2011-05-01T13:00:00Z,26.2168,-96.4998,2.0,329.7796346,8.066256877,-99999.0,'11133222,11111222,99999999' 
TABS,ioos:station:wmo:42045:1,2011-05-01T13:30:00Z,26.2168,-96.4998,2.0,314.6665584,7.283323417,-99999.0,'11133222,11111222,99999999' 
TABS,ioos:station:wmo:42045:1,2011-05-01T14:00:00Z,26.2168,-96.4998,2.0,337.8069226,16.01659764,-99999.0,'11111222,11111222,99999999' 
TABS,ioos:station:wmo:42045:1,2011-05-01T14:30:00Z,26.2168,-96.4998,2.0,340.1068402,15.28191415,-99999.0,'11111222,11111222,99999999' 
TABS,ioos:station:wmo:42045:1,2011-05-01T15:00:00Z,26.2168,-96.4998,2.0,354.8659691,12.0684216,-99999.0,'11111222,11111222,99999999' 
TABS,ioos:station:wmo:42045:1,2011-05-01T15:30:00Z,26.2168,-96.4998,2.0,347.0335239,20.01024987,-99999.0,'11111222,11111222,99999999' 
TABS,ioos:station:wmo:42045:1,2011-05-01T16:00:00Z,26.2168,-96.4998,2.0,345.6140715,23.82714418,-99999.0,'11111222,11111222,99999999' 
TABS,ioos:station:wmo:42045:1,2011-05-01T16:30:00Z,26.2168,-96.4998,2.0,357.6428871,17.50481362,-99999.0,'11111222,11111222,99999999' 
TABS,ioos:station:wmo:42045:1,2011-05-01T17:00:00Z,26.2168,-96.4998,2.0,358.0367031,22.47319514,-99999.0,'11111222,11111222,99999999' 
TABS,ioos:station:wmo:42045:1,2011-05-01T17:30:00Z,26.2168,-96.4998,2.0,3.74784667,20.65416665,-99999.0,'11111222,11111222,99999999' 
TABS,ioos:station:wmo:42045:1,2011-05-01T18:00:00Z,26.2168,-96.4998,2.0,359.4984302,25.12096336,-99999.0,'11111222,11144222,99999999' 
TABS,ioos:station:wmo:42045:1,2011-05-01T18:30:00Z,26.2168,-96.4998,2.0,6.465419881,26.8205686,-99999.0,'11111222,11111222,99999999' 
TABS,ioos:station:wmo:42045:1,2011-05-01T19:00:00Z,26.2168,-96.4998,2.0,14.26098975,22.89553887,-99999.0,'11111222,11111222,99999999' 
TABS,ioos:station:wmo:42045:1,2011-05-01T19:30:00Z,26.2168,-96.4998,2.0,3.994100706,17.80323566,-99999.0,'11111222,11111222,99999999' 
TABS,ioos:station:wmo:42045:1,2011-05-01T20:00:00Z,26.2168,-96.4998,2.0,15.38892906,17.67364422,-99999.0,'11111222,11111222,99999999' 
TABS,ioos:station:wmo:42045:1,2011-05-01T20:30:00Z,26.2168,-96.4998,2.0,30.41582933,13.98463442,-99999.0,'11111222,11111222,99999999' 
TABS,ioos:station:wmo:42045:1,2011-05-01T21:00:00Z,26.2168,-96.4998,2.0,26.1945812,18.66708601,-99999.0,'11111222,11111222,99999999' 
TABS,ioos:station:wmo:42045:1,2011-05-01T21:30:00Z,26.2168,-96.4998,2.0,28.48063768,18.99930525,-99999.0,'11111222,11111222,99999999' 
TABS,ioos:station:wmo:42045:1,2011-05-01T22:00:00Z,26.2168,-96.4998,2.0,29.46044352,19.47865498,-99999.0,'11111222,11111222,99999999' 
TABS,ioos:station:wmo:42045:1,2011-05-01T22:30:00Z,26.2168,-96.4998,2.0,44.32557397,19.22049427,-99999.0,'11111222,11111222,99999999' 
TABS,ioos:station:wmo:42045:1,2011-05-01T23:00:00Z,26.2168,-96.4998,2.0,20.658910063307,16.949926253527,-99999.0,'1111122,1111122,1199999999' 
TABS,ioos:station:wmo:42045:1,2011-05-01T23:30:00Z,26.2168,-96.4998,2.0,36.476118419757,20.370481093975,-99999.0,'1111122,1111122,1199999999' 
TABS,ioos:station:wmo:42045:1,2011-05-02T00:00:00Z,26.2168,-96.4998,2.0,38.44891603,24.17117705,-99999.0,'11111222,11111222,99999999' 
TABS,ioos:station:wmo:42045:1,2011-05-02T00:30:00Z,26.2168,-96.4998,2.0,35.03211556,14.09325016,-99999.0,'11111222,11111222,99999999' 
TABS,ioos:station:wmo:42045:1,2011-05-02T01:00:00Z,26.2168,-96.4998,2.0,48.97548856,9.689463349,-99999.0,'11133222,11111222,99999999' 
TABS,ioos:station:wmo:42045:1,2011-05-02T01:30:00Z,26.2168,-96.4998,2.0,61.52586297,3.355964839,-99999.0,'11133222,11111222,99999999' 
TABS,ioos:station:wmo:42045:1,2011-05-02T02:00:00Z,26.2168,-96.4998,2.0,41.53021914,7.360332873,-99999.0,'11133222,11111222,99999999' 
TABS,ioos:station:wmo:42045:1,2011-05-02T02:30:00Z,26.2168,-96.4998,2.0,62.41640665,9.307985819,-99999.0,'11133222,11111222,99999999' 
TABS,ioos:station:wmo:42045:1,2011-05-02T03:00:00Z,26.2168,-96.4998,2.0,58.13063359,7.594906188,-99999.0,'11133222,11111222,99999999' 
TABS,ioos:station:wmo:42045:1,2011-05-02T03:30:00Z,26.2168,-96.4998,2.0,44.80621208,8.358050012,-99999.0,'11133222,11111222,99999999' 
TABS,ioos:station:wmo:42045:1,2011-05-02T04:00:00Z,26.2168,-96.4998,2.0,51.44794013,8.31158228,-99999.0,'11133222,11111222,99999999' 
TABS,ioos:station:wmo:42045:1,2011-05-02T04:30:00Z,26.2168,-96.4998,2.0,50.55306328,7.161242909,-99999.0,'11133222,11111222,99999999' 
TABS,ioos:station:wmo:42045:1,2011-05-02T05:00:00Z,26.2168,-96.4998,2.0,43.47933912,6.394497635,-99999.0,'11133222,11111222,99999999' 
TABS,ioos:station:wmo:42045:1,2011-05-02T05:30:00Z,26.2168,-96.4998,2.0,53.79839191,5.316361538,-99999.0,'11133222,11111222,99999999' 
TABS,ioos:station:wmo:42045:1,2011-05-02T06:00:00Z,26.2168,-96.4998,2.0,70.40964586,9.722818521,-99999.0,'11133222,11111222,99999999' 
TABS,ioos:station:wmo:42045:1,2011-05-02T06:30:00Z,26.2168,-96.4998,2.0,43.99736668,6.060833276,-99999.0,'11133222,11111222,99999999' 
TABS,ioos:station:wmo:42045:1,2011-05-02T07:00:00Z,26.2168,-96.4998,2.0,146.3098008,0.721110255,-99999.0,'11133222,11111222,99999999' 
TABS,ioos:station:wmo:42045:1,2011-05-02T07:30:00Z,26.2168,-96.4998,2.0,71.27051773,2.460284536,-99999.0,'11133222,11111222,99999999' 
TABS,ioos:station:wmo:42045:1,2011-05-02T08:00:00Z,26.2168,-96.4998,2.0,40.53153746,4.447077692,-99999.0,'11133222,11111222,99999999' 
TABS,ioos:station:wmo:42045:1,2011-05-02T08:30:00Z,26.2168,-96.4998,2.0,207.936867,1.494121816,-99999.0,'11133222,11111222,99999999' 
TABS,ioos:station:wmo:42045:1,2011-05-02T09:00:00Z,26.2168,-96.4998,2.0,173.266884,4.35,-99999.0,'11133222,11111222,99999999' 
TABS,ioos:station:wmo:42045:1,2011-05-02T09:30:00Z,26.2168,-96.4998,2.0,177.7462626,4.323343613,-99999.0,'11133222,11111222,99999999' 
TABS,ioos:station:wmo:42045:1,2011-05-02T10:00:00Z,26.2168,-96.4998,2.0,182.7086886,7.828748304,-99999.0,'11133222,11111222,99999999' 
TABS,ioos:station:wmo:42045:1,2011-05-02T10:30:00Z,26.2168,-96.4998,2.0,185.5162637,4.993125274,-99999.0,'11133222,11111222,99999999' 
TABS,ioos:station:wmo:42045:1,2011-05-02T11:00:00Z,26.2168,-96.4998,2.0,189.2956712,3.962032307,-99999.0,'11133222,11111222,99999999' 
TABS,ioos:station:wmo:42045:1,2011-05-02T11:30:00Z,26.2168,-96.4998,2.0,164.4662741,3.248661263,-99999.0,'11133222,11111222,99999999' 
TABS,ioos:station:wmo:42045:1,2011-05-02T12:00:00Z,26.2168,-96.4998,2.0,192.1234994,1.380796871,-99999.0,'11133222,11111222,99999999' 
TABS,ioos:station:wmo:42045:1,2011-05-02T12:30:00Z,26.2168,-96.4998,2.0,225.1173343,3.443617284,-99999.0,'11133222,11111222,99999999' 
TABS,ioos:station:wmo:42045:1,2011-05-02T13:00:00Z,26.2168,-96.4998,2.0,247.1062815,4.190047732,-99999.0,'11133222,11111222,99999999' 
TABS,ioos:station:wmo:42045:1,2011-05-02T13:30:00Z,26.2168,-96.4998,2.0,267.7431733,7.365711099,-99999.0,'11133222,11111222,99999999' 
TABS,ioos:station:wmo:42045:1,2011-05-02T14:00:00Z,26.2168,-96.4998,2.0,265.6875478,8.112964933,-99999.0,'11133222,11111222,99999999' 
TABS,ioos:station:wmo:42045:1,2011-05-02T14:30:00Z,26.2168,-96.4998,2.0,209.7021758,3.3501791,-99999.0,'11133222,11111222,99999999' 
TABS,ioos:station:wmo:42045:1,2011-05-02T15:00:00Z,26.2168,-96.4998,2.0,290.517887,3.480804505,-99999.0,'11133222,11111222,99999999' 
TABS,ioos:station:wmo:42045:1,2011-05-02T15:30:00Z,26.2168,-96.4998,2.0,267.0049512,4.976796158,-99999.0,'11133222,11111222,99999999' 
TABS,ioos:station:wmo:42045:1,2011-05-02T16:00:00Z,26.2168,-96.4998,2.0,289.0430686,6.55893284,-99999.0,'11133222,11111222,99999999' 
TABS,ioos:station:wmo:42045:1,2011-05-02T16:30:00Z,26.2168,-96.4998,2.0,324.5426935,3.32701067,-99999.0,'11133222,11111222,99999999' 
TABS,ioos:station:wmo:42045:1,2011-05-02T17:00:00Z,26.2168,-96.4998,2.0,326.6240445,7.089174846,-99999.0,'11133222,11111222,99999999' 
TABS,ioos:station:wmo:42045:1,2011-05-02T17:30:00Z,26.2168,-96.4998,2.0,306.5733664,3.860051813,-99999.0,'11133222,11111222,99999999' 
TABS,ioos:station:wmo:42045:1,2011-05-02T18:00:00Z,26.2168,-96.4998,2.0,328.2295988,2.070193228,-99999.0,'11133222,11111222,99999999' 
TABS,ioos:station:wmo:42045:1,2011-05-02T18:30:00Z,26.2168,-96.4998,2.0,332.2787893,2.880642289,-99999.0,'11133222,11111222,99999999' 
TABS,ioos:station:wmo:42045:1,2011-05-02T19:00:00Z,26.2168,-96.4998,2.0,309.0308592,4.82743203,-99999.0,'11133222,11111222,99999999' 
TABS,ioos:station:wmo:42045:1,2011-05-02T19:30:00Z,26.2168,-96.4998,2.0,169.1456347,10.35525953,-99999.0,'11111222,11111222,99999999' 
TABS,ioos:station:wmo:42045:1,2011-05-02T20:00:00Z,26.2168,-96.4998,2.0,158.1521609,16.09607716,-99999.0,'11111222,11111222,99999999' 
TABS,ioos:station:wmo:42045:1,2011-05-02T20:30:00Z,26.2168,-96.4998,2.0,157.8417312,19.08985071,-99999.0,'11111222,11111222,99999999' 
TABS,ioos:station:wmo:42045:1,2011-05-02T21:00:00Z,26.2168,-96.4998,2.0,172.2280825,19.67068123,-99999.0,'11111222,11111222,99999999' 
TABS,ioos:station:wmo:42045:1,2011-05-02T21:30:00Z,26.2168,-96.4998,2.0,172.0425722,21.09309129,-99999.0,'11111222,11111222,99999999' 
TABS,ioos:station:wmo:42045:1,2011-05-03T00:00:00Z,26.2168,-96.4998,2.0,182.9881488,25.89521384,-99999.0,'11111222,11111222,99999999' 
TABS,ioos:station:wmo:42045:1,2011-05-03T00:30:00Z,26.2168,-96.4998,2.0,180.046258,24.66000811,-99999.0,'11111222,11111222,99999999' 
TABS,ioos:station:wmo:42045:1,2011-05-03T01:00:00Z,26.2168,-96.4998,2.0,199.2147498,28.10576631,-99999.0,'11111222,11111222,99999999' 
TABS,ioos:station:wmo:42045:1,2011-05-03T01:30:00Z,26.2168,-96.4998,2.0,173.1582423,18.80389587,-99999.0,'11111222,11111222,99999999' 
TABS,ioos:station:wmo:42045:1,2011-05-03T02:00:00Z,26.2168,-96.4998,2.0,189.0611469,30.54114765,-99999.0,'11111222,11111222,99999999' 
TABS,ioos:station:wmo:42045:1,2011-05-03T02:30:00Z,26.2168,-96.4998,2.0,191.5746981,26.7132645,-99999.0,'11111222,11111222,99999999' 
TABS,ioos:station:wmo:42045:1,2011-05-03T03:00:00Z,26.2168,-96.4998,2.0,190.191058,30.237065,-99999.0,'11111222,11111222,99999999' 
TABS,ioos:station:wmo:42045:1,2011-05-03T03:30:00Z,26.2168,-96.4998,2.0,191.3867265,29.17426263,-99999.0,'11111222,11111222,99999999' 
TABS,ioos:station:wmo:42045:1,2011-05-03T04:00:00Z,26.2168,-96.4998,2.0,203.8636218,27.14024318,-99999.0,'11111222,11111222,99999999' 
TABS,ioos:station:wmo:42045:1,2011-05-03T04:30:00Z,26.2168,-96.4998,2.0,197.1497132,32.99717867,-99999.0,'11111222,11111222,99999999' 
TABS,ioos:station:wmo:42045:1,2011-05-03T05:00:00Z,26.2168,-96.4998,2.0,200.1615663,32.32050742,-99999.0,'11111222,11111222,99999999' 
TABS,ioos:station:wmo:42045:1,2011-05-03T05:30:00Z,26.2168,-96.4998,2.0,194.6710063,28.23045519,-99999.0,'11111222,11111222,99999999' 
TABS,ioos:station:wmo:42045:1,2011-05-03T06:00:00Z,26.2168,-96.4998,2.0,202.6129861,39.97307719,-99999.0,'11111222,11111222,99999999' 
TABS,ioos:station:wmo:42045:1,2011-05-03T06:30:00Z,26.2168,-96.4998,2.0,210.5335763,36.57138772,-99999.0,'11111222,11111222,99999999' 
TABS,ioos:station:wmo:42045:1,2011-05-03T07:00:00Z,26.2168,-96.4998,2.0,209.0767628,32.24377924,-99999.0,'11111222,11111222,99999999' 
TABS,ioos:station:wmo:42045:1,2011-05-03T07:30:00Z,26.2168,-96.4998,2.0,206.9216206,29.44064198,-99999.0,'11111222,11111222,99999999' 
TABS,ioos:station:wmo:42045:1,2011-05-03T08:00:00Z,26.2168,-96.4998,2.0,206.8052091,35.1691868,-99999.0,'11111222,11111222,99999999' 
TABS,ioos:station:wmo:42045:1,2011-05-03T08:30:00Z,26.2168,-96.4998,2.0,206.6345556,29.37748287,-99999.0,'11111222,11111222,99999999' 
TABS,ioos:station:wmo:42045:1,2011-05-03T09:00:00Z,26.2168,-96.4998,2.0,211.9339359,29.8707633,-99999.0,'11111222,11111222,99999999' 
TABS,ioos:station:wmo:42045:1,2011-05-03T09:30:00Z,26.2168,-96.4998,2.0,221.1674778,35.65426342,-99999.0,'11111222,11111222,99999999' 
TABS,ioos:station:wmo:42045:1,2011-05-03T10:00:00Z,26.2168,-96.4998,2.0,210.4697681,32.24293101,-99999.0,'11111222,11111222,99999999' 
TABS,ioos:station:wmo:42045:1,2011-05-03T10:30:00Z,26.2168,-96.4998,2.0,218.7929856,29.49661845,-99999.0,'11111222,11111222,99999999' 
TABS,ioos:station:wmo:42045:1,2011-05-03T11:00:00Z,26.2168,-96.4998,2.0,214.1236024,37.36290272,-99999.0,'11111222,11111222,99999999' 
TABS,ioos:station:wmo:42045:1,2011-05-03T11:30:00Z,26.2168,-96.4998,2.0,212.6821594,38.48272989,-99999.0,'11111222,11111222,99999999' 
TABS,ioos:station:wmo:42045:1,2011-05-03T12:00:00Z,26.2168,-96.4998,2.0,217.0148368,39.45012674,-99999.0,'11111222,11111222,99999999' 
TABS,ioos:station:wmo:42045:1,2011-05-03T12:30:00Z,26.2168,-96.4998,2.0,220.9763414,44.04108196,-99999.0,'11111222,11111222,99999999' 
TABS,ioos:station:wmo:42045:1,2011-05-03T13:00:00Z,26.2168,-96.4998,2.0,227.8945604,42.9833049,-99999.0,'11111222,11111222,99999999' 
TABS,ioos:station:wmo:42045:1,2011-05-03T13:30:00Z,26.2168,-96.4998,2.0,230.7141258,41.75710718,-99999.0,'11111222,11111222,99999999' 
TABS,ioos:station:wmo:42045:1,2011-05-03T14:00:00Z,26.2168,-96.4998,2.0,225.8144549,39.28375364,-99999.0,'11111222,11111222,99999999' 
TABS,ioos:station:wmo:42045:1,2011-05-03T14:30:00Z,26.2168,-96.4998,2.0,223.3141448,41.58880258,-99999.0,'11111222,11111222,99999999' 
TABS,ioos:station:wmo:42045:1,2011-05-03T15:00:00Z,26.2168,-96.4998,2.0,224.7017571,43.51593961,-99999.0,'11111222,11111222,99999999' 
TABS,ioos:station:wmo:42045:1,2011-05-03T15:30:00Z,26.2168,-96.4998,2.0,229.7271592,36.29197845,-99999.0,'11111222,11111222,99999999' 
TABS,ioos:station:wmo:42045:1,2011-05-03T16:00:00Z,26.2168,-96.4998,2.0,232.3447023,38.82764479,-99999.0,'11111222,11111222,99999999' 
TABS,ioos:station:wmo:42045:1,2011-05-03T16:30:00Z,26.2168,-96.4998,2.0,227.239155,38.00065789,-99999.0,'11111222,11111222,99999999' 
TABS,ioos:station:wmo:42045:1,2011-05-03T17:00:00Z,26.2168,-96.4998,2.0,231.599665,42.01898262,-99999.0,'11111222,11111222,99999999' 
TABS,ioos:station:wmo:42045:1,2011-05-03T17:30:00Z,26.2168,-96.4998,2.0,228.0645907,36.76557357,-99999.0,'11111222,11111222,99999999' 
TABS,ioos:station:wmo:42045:1,2011-05-03T18:00:00Z,26.2168,-96.4998,2.0,223.9798695,33.76969796,-99999.0,'11111222,11111222,99999999' 
TABS,ioos:station:wmo:42045:1,2011-05-03T18:30:00Z,26.2168,-96.4998,2.0,227.4431955,31.34626134,-99999.0,'11111222,11111222,99999999' 
TABS,ioos:station:wmo:42045:1,2011-05-03T19:00:00Z,26.2168,-96.4998,2.0,225.1673487,26.58025771,-99999.0,'11111222,11111222,99999999' 
TABS,ioos:station:wmo:42045:1,2011-05-03T19:30:00Z,26.2168,-96.4998,2.0,239.227456,21.03098904,-99999.0,'11111222,11111222,99999999' 
TABS,ioos:station:wmo:42045:1,2011-05-03T20:00:00Z,26.2168,-96.4998,2.0,266.611631,12.52188484,-99999.0,'11111222,11111222,99999999' 
TABS,ioos:station:wmo:42045:1,2011-05-03T20:30:00Z,26.2168,-96.4998,2.0,239.7872129,16.87176636,-99999.0,'11111222,11111222,99999999' 
TABS,ioos:station:wmo:42045:1,2011-05-03T21:00:00Z,26.2168,-96.4998,2.0,255.8969772,14.65158694,-99999.0,'11111222,11111222,99999999' 
TABS,ioos:station:wmo:42045:1,2011-05-03T21:30:00Z,26.2168,-96.4998,2.0,252.9911744,12.95670483,-99999.0,'11111222,11111222,99999999' 
TABS,ioos:station:wmo:42045:1,2011-05-03T22:00:00Z,26.2168,-96.4998,2.0,260.9045958,14.36054665,-99999.0,'11111222,11111222,99999999' 
TABS,ioos:station:wmo:42045:1,2011-05-03T22:30:00Z,26.2168,-96.4998,2.0,277.3772993,14.9537721,-99999.0,'11111222,11111222,99999999' 
TABS,ioos:station:wmo:42045:1,2011-05-03T23:00:00Z,26.2168,-96.4998,2.0,230.0960593,3.741243109,-99999.0,'11133222,11111222,99999999' 
TABS,ioos:station:wmo:42045:1,2011-05-03T23:30:00Z,26.2168,-96.4998,2.0,267.12819470351,12.175290550948,-99999.0,'1111122,1111122,1199999999' 
TABS,ioos:station:wmo:42045:1,2011-05-04T00:00:00Z,26.2168,-96.4998,2.0,160.7999136,4.500322211,-99999.0,'11133222,11111222,99999999' 
TABS,ioos:station:wmo:42045:1,2011-05-04T00:30:00Z,26.2168,-96.4998,2.0,241.9843771,3.534119409,-99999.0,'11133222,11111222,99999999' 
TABS,ioos:station:wmo:42045:1,2011-05-04T01:00:00Z,26.2168,-96.4998,2.0,203.826267,2.99527962,-99999.0,'11133222,11111222,99999999' 
TABS,ioos:station:wmo:42045:1,2011-05-04T01:30:00Z,26.2168,-96.4998,2.0,150.4332832,1.195700631,-99999.0,'11133222,11111222,99999999' 
TABS,ioos:station:wmo:42045:1,2011-05-04T02:00:00Z,26.2168,-96.4998,2.0,180.1318069,4.340011521,-99999.0,'11133222,11111222,99999999' 
TABS,ioos:station:wmo:42045:1,2011-05-04T02:30:00Z,26.2168,-96.4998,2.0,207.7708246,8.498941111,-99999.0,'11133222,11111222,99999999' 
TABS,ioos:station:wmo:42045:1,2011-05-04T03:00:00Z,26.2168,-96.4998,2.0,194.5342106,12.2727666,-99999.0,'11111222,11111222,99999999' 
TABS,ioos:station:wmo:42045:1,2011-05-04T03:30:00Z,26.2168,-96.4998,2.0,179.3389694,8.670576682,-99999.0,'11133222,11111222,99999999' 
TABS,ioos:station:wmo:42045:1,2011-05-04T04:00:00Z,26.2168,-96.4998,2.0,214.5055742,11.10344991,-99999.0,'11111222,11111222,99999999' 
TABS,ioos:station:wmo:42045:1,2011-05-04T04:30:00Z,26.2168,-96.4998,2.0,204.3887888,15.54741136,-99999.0,'11111222,11111222,99999999' 
TABS,ioos:station:wmo:42045:1,2011-05-04T05:00:00Z,26.2168,-96.4998,2.0,200.8375063,18.32886521,-99999.0,'11111222,11111222,99999999' 
TABS,ioos:station:wmo:42045:1,2011-05-04T05:30:00Z,26.2168,-96.4998,2.0,217.5930265,16.94935102,-99999.0,'11111222,11111222,99999999' 
TABS,ioos:station:wmo:42045:1,2011-05-04T06:00:00Z,26.2168,-96.4998,2.0,210.7203044,16.97165284,-99999.0,'11111222,11111222,99999999' 
TABS,ioos:station:wmo:42045:1,2011-05-04T06:30:00Z,26.2168,-96.4998,2.0,202.3511065,21.66793022,-99999.0,'11111222,11111222,99999999' 
TABS,ioos:station:wmo:42045:1,2011-05-04T07:00:00Z,26.2168,-96.4998,2.0,207.2977055,20.62717867,-99999.0,'11111222,11111222,99999999' 
TABS,ioos:station:wmo:42045:1,2011-05-04T07:30:00Z,26.2168,-96.4998,2.0,215.9060859,19.14870753,-99999.0,'11111222,11111222,99999999' 
TABS,ioos:station:wmo:42045:1,2011-05-04T08:00:00Z,26.2168,-96.4998,2.0,231.1211589,19.22981539,-99999.0,'11111222,11111222,99999999' 
TABS,ioos:station:wmo:42045:1,2011-05-04T08:30:00Z,26.2168,-96.4998,2.0,243.6237406,14.9012382,-99999.0,'11111222,11111222,99999999' 
TABS,ioos:station:wmo:42045:1,2011-05-04T09:00:00Z,26.2168,-96.4998,2.0,235.1516445,15.64574063,-99999.0,'11111222,11111222,99999999' 
TABS,ioos:station:wmo:42045:1,2011-05-04T09:30:00Z,26.2168,-96.4998,2.0,229.6747142,23.1641037,-99999.0,'11111222,11111222,99999999' 
TABS,ioos:station:wmo:42045:1,2011-05-04T10:00:00Z,26.2168,-96.4998,2.0,242.6230061,17.04949266,-99999.0,'11111222,11111222,99999999' 
TABS,ioos:station:wmo:42045:1,2011-05-04T10:30:00Z,26.2168,-96.4998,2.0,222.2682192,22.40538551,-99999.0,'11111222,11111222,99999999' 
TABS,ioos:station:wmo:42045:1,2011-05-04T11:00:00Z,26.2168,-96.4998,2.0,232.5449728,21.16310232,-99999.0,'11111222,11111222,99999999' 
TABS,ioos:station:wmo:42045:1,2011-05-04T11:30:00Z,26.2168,-96.4998,2.0,231.0689619,27.08551827,-99999.0,'11111222,11111222,99999999' 
TABS,ioos:station:wmo:42045:1,2011-05-04T12:00:00Z,26.2168,-96.4998,2.0,218.2870883,17.05922038,-99999.0,'11111222,11111222,99999999' 
TABS,ioos:station:wmo:42045:1,2011-05-04T12:30:00Z,26.2168,-96.4998,2.0,230.5011516,27.95341303,-99999.0,'11111222,11111222,99999999' 
TABS,ioos:station:wmo:42045:1,2011-05-04T13:00:00Z,26.2168,-96.4998,2.0,233.6050964,16.63457243,-99999.0,'11111222,11111222,99999999' 
TABS,ioos:station:wmo:42045:1,2011-05-04T13:30:00Z,26.2168,-96.4998,2.0,259.1839664,17.9590228,-99999.0,'11111222,11111222,99999999' 
TABS,ioos:station:wmo:42045:1,2011-05-04T14:00:00Z,26.2168,-96.4998,2.0,240.8096935,15.62414798,-99999.0,'11111222,11111222,99999999' 
TABS,ioos:station:wmo:42045:1,2011-05-04T14:30:00Z,26.2168,-96.4998,2.0,254.3123701,22.56032801,-99999.0,'11111222,11111222,99999999' 
TABS,ioos:station:wmo:42045:1,2011-05-04T15:00:00Z,26.2168,-96.4998,2.0,256.2280116,13.65247597,-99999.0,'11111222,11111222,99999999' 
TABS,ioos:station:wmo:42045:1,2011-05-04T15:30:00Z,26.2168,-96.4998,2.0,264.6021053,17.11589028,-99999.0,'11111222,11111222,99999999' 
TABS,ioos:station:wmo:42045:1,2011-05-04T16:00:00Z,26.2168,-96.4998,2.0,242.9114894,17.63436701,-99999.0,'11111222,11111222,99999999' 
TABS,ioos:station:wmo:42045:1,2011-05-04T16:30:00Z,26.2168,-96.4998,2.0,254.3111499,16.23480828,-99999.0,'11111222,11111222,99999999' 
TABS,ioos:station:wmo:42045:1,2011-05-04T17:00:00Z,26.2168,-96.4998,2.0,262.200807,22.25585092,-99999.0,'11111222,11111222,99999999' 
TABS,ioos:station:wmo:42045:1,2011-05-04T17:30:00Z,26.2168,-96.4998,2.0,261.8849936,26.14173866,-99999.0,'11111222,11111222,99999999' 